Regional Weather Roundup
Issued by NWS

Home | Current Version | Previous Version | Text Only | Print | Product List | Glossary Off
Versions: 1 2 3 4 5 6 7 8 9 10 11 12 13 14 15 16 17 18 19 20 21 22 23 24 25 26 27 28 29 30 31 32 33 34 35 36 37 38 39 40 41 42 43 44 45 46 47 48 49 50

000
ASUS43 KMKX 040900
RWRWI

WISCONSIN REGIONAL WEATHER ROUNDUP
NATIONAL WEATHER SERVICE MILWAUKEE/SULLIVAN WI
400 AM CDT TUE AUG 04 2015

NOTE: "FAIR" INDICATES FEW OR NO CLOUDS BELOW 12,000 FEET WITH NO
SIGNIFICANT WEATHER AND/OR OBSTRUCTIONS TO VISIBILITY.

WIZ001-002-006>008-014>016-023>028-041000-
NORTHWEST WISCONSIN

CITY           SKY/WX    TMP DP  RH WIND       PRES   REMARKS
SUPERIOR ARPT  CLEAR     47  47  99 CALM      29.91S
ASHLAND        CLEAR     57  52  83 W5        29.90R
HAYWARD        CLEAR     48  46  93 CALM      29.93S
SIREN          CLEAR     53  51  94 CALM      29.94R
CUMBERLAND     CLEAR     52  50  93 W3        29.94S
RICE LAKE      CLEAR     51  49  92 CALM      29.95R
CHETEK         CLEAR     55  53  95 CALM      29.94R
LADYSMITH      CLEAR     57  53  86 CALM      29.94S
EAU CLAIRE     NOT AVBL
MENOMONIE      CLEAR     59  55  84 W5        29.95R
NEW RICHMOND   CLEAR     53  52  97 CALM      29.96S
OSCEOLA        CLEAR     53  53 100 CALM      29.98S
$$

WIZ003>005-009-010-017-018-041000-
NORTH CENTRAL WISCONSIN

CITY           SKY/WX    TMP DP  RH WIND       PRES   REMARKS
MANITOWISH WTR CLOUDY    51  51 100 CALM      29.90R
ARBOR VITAE    CLEAR     57  55  94 SW3       29.90S
WOODRUFF       CLEAR     57  55  94 SW3       29.90S
RHINELANDER    CLEAR     56  53  90 W6        29.91R
EAGLE RIVER    MOCLDY    52  52 100 CALM      29.89R FOG
LAND O LAKES   MOCLDY    56  55  96 W5        29.90S
PHILLIPS       MOCLDY    55  53  94 CALM      29.91S
TOMAHAWK       PTCLDY    54  52  95 W3        29.91S
MEDFORD        CLEAR     53  52  94 NW5       29.92R
MERRILL        NOT AVBL
$$

WIZ029-030-035-036-043>047-041000-
CENTRAL WISCONSIN

CITY           SKY/WX    TMP DP  RH WIND       PRES   REMARKS
WAUSAU         CLEAR     61  55  81 NW6       29.89R
MOSINEE        CLEAR     59  54  82 NW6       29.91S
MARSHFIELD     CLEAR     58  51  78 W7        29.92R
STEVENS POINT  CLEAR     59  53  79 W3        29.91R
WAUPACA        MOCLDY    62  55  76 W3        29.90S
WAUTOMA        NOT AVBL
WISC RAPIDS    CLOUDY    60  52  74 W3        29.93R
CAMP DOUGLAS   NOT AVBL
$$

WIZ011>013-019>022-031-037>040-048>050-041000-
NORTHEAST WISCONSIN

CITY           SKY/WX    TMP DP  RH WIND       PRES   REMARKS
ANTIGO         PTCLDY    55  54  94 W3        29.90S
SHAWANO        MOCLDY    58  56  91 CALM      29.89S
OCONTO         CLOUDY    55  55 100 CALM      29.86S
STURGEON BAY   CLOUDY    59  54  82 W3        29.89S
GREEN BAY      MOCLDY    58  55  90 W3        29.88S
MANITOWOC      NOT AVBL
APPLETON       CLOUDY    59  52  77 W7        29.90R
CLINTONVILLE   PTCLDY    55  54  94 CALM      29.89S
OSHKOSH        PTCLDY    61  52  72 W6        29.89R
$$

WIZ032>034-041-042-053>061-041000-
SOUTHWEST WISCONSIN

CITY           SKY/WX    TMP DP  RH WIND       PRES   REMARKS
LA CROSSE      CLEAR     58  55  90 N3        29.93S
SPARTA         CLEAR     49  47  94 CALM      29.94R
VIROQUA        CLEAR     56  52  89 W3        29.95R
BOSCOBEL       CLEAR     55  53  93 SW3       29.94S
PRAIRIE DU CHI CLEAR     55  53  91 CALM      29.93F
PLATTEVILLE    CLEAR     59  55  88 W3        29.94F
$$

WIZ056-057-062-063-064-067-068-041000-
SOUTH CENTRAL WISCONSIN

CITY           SKY/WX    TMP DP  RH WIND       PRES   REMARKS
REEDSBURG      CLEAR     53  52  97 CALM      29.92S
BARABOO/DELLS  CLEAR     56  50  79 CALM      29.92S
LONE ROCK      NOT AVBL
MINERAL POINT  CLEAR     59  54  82 CALM      29.94S
MADISON        CLEAR     58  52  80 CALM      29.91S
MIDDLETON      CLEAR     55  51  89 CALM      29.93R
WATERTOWN      CLEAR     53  53 100 CALM      29.91S
MONROE         CLEAR     61  54  77 W9        29.94R
JANESVILLE     CLEAR     55  54  94 CALM      29.92S
$$

WIZ051-052-058>065-066-070>072-041000-
SOUTHEAST WISCONSIN

CITY           SKY/WX    TMP DP  RH WIND       PRES   REMARKS
MILWAUKEE      CLEAR     64  51  62 W6        29.91R
WAUKESHA       CLEAR     55  50  82 CALM      29.93S
MILWAUKEE/TIMM CLEAR     59  50  72 CALM      29.91S
RACINE         CLEAR     61  53  75 W7        29.92S
BURLINGTON     CLEAR     52  51  96 CALM      29.92S
KENOSHA        CLEAR     58  53  84 W5        29.92R
FOND DU LAC    CLEAR     58  52  80 SW7       29.90R
SHEBOYGAN      PTCLDY    56  54  93 W5        29.89S
WEST BEND      PTCLDY    55  52  88 CALM      29.90S
JUNEAU         CLEAR     54  51  91 SW5       29.92S
$$

LSZ147-162-041000-
LAKE SUPERIOR

STATION/POSITION TIME  TEMP    WIND        PRES    WAVE
                       AIR SEA DIR/SP/G            HT/PER
                 (UTC) (F)     (DEG/KT/KT) (MB)    (FT/S)
W MID LAKE BUOY  0750   57 56  280/  8/ 10 1010.7R   1/ 4
DEVILS ISLAND    0800   57     260/ 12/ 14 1011.8R
PORT WING        0800   60     220/  5/  7 1012.5
SAXON HARBOR     0840   61        CALM     1011.5S
$$

LMZ867-665-643>646-041000-
LAKE MICHIGAN

STATION/POSITION TIME  TEMP    WIND        PRES    WAVE
                       AIR SEA DIR/SP/G            HT/PER
                 (UTC) (F)     (DEG/KT/KT) (MB)    (FT/S)
CHAMBERS ISLAND  0800   63     230/  5/  8 1010.8S
S GREEN BAY BUOY 0800   64 71  270/  8/ 10 1012.7S
N MID LAKE BUOY  0750   64 67  270/ 10/ 12 1009.7S   1/ 3
NORTHPORT PIER   0800   64     300/  7/ 11 1010.5S
SISTER BAY       0818   64     310/ 15/ 17   N/A
ALGOMA LAKESHORE 0812           CALM  /  4   N/A
KEWAUNEE LAKESHO 0800   60     290/  3/  5 1011.0S
SHEBOYGAN LAKESH 0800   63     260/  6/  7 1012.0F
PORT WASHINGTON  0800   63     280/  5/  7 1012.9S
ATWATER BUOY     0800   63 59  260/  6/  6 1013.7S
MILWAUKEE LAKESH 0800   67     280/  5/  6   N/A
KENOSHA   LAKESH 0800   66     280/  9/ 11 1012.2F
$$

TC  - TEMPERATURE IN CELSIUS
VSB - VISIBILITY IN STATUTE MILES
WCI - WIND CHILL INDEX
HX  - HEAT INDEX



USA.gov is the U.S. government's official web portal to all federal, state and local government web resources and services.